Temperature
-1 -1 -1 -1 -1 -1 -1 -1 -3 -5 -5 -3 -3 -2 -3 -4 -4 -5 -6 -6 -6 -6 -6 -6 -6 -6 -6 -6 -6 -6 -6 -6 -6 -5 -5 -5 -5 -4
-2 -2 -2 -2 -2 -2 -2 -2 -3 -4 -5 -4 -3 -2 -3 -4 -4 -6 -6 -6 -7 -6 -6 -6 -6 -6 -6 -6 -6 -6 -6 -6 -6 -6 -5 -5 -5 -4
-3 -3 -3 -3 -3 -3 -3 -3 -3 -4 -5 -5 -4 -3 -4 -4 -4 -5 -6 -6 -6 -7 -7 -7 -7 -7 -6 -6 -6 -6 -6 -6 -6 -6 -6 -6 -5 -5
-3 -3 -4 -4 -4 -4 -4 -4 -4 -4 -5 -5 -5 -4 -4 -5 -5 -6 -6 -7 -7 -7 -7 -7 -7 -7 -7 -7 -7 -7 -7 -7 -7 -6 -6 -6 -6 -5
-3 -4 -4 -4 -4 -5 -5 -4 -4 -4 -5 -6 -6 -5 -5 -5 -6 -7 -7 -7 -7 -7 -7 -7 -7 -7 -7 -7 -7 -7 -7 -7 -7 -7 -7 -7 -6 -6
-4 -4 -5 -5 -5 -5 -5 -5 -4 -5 -5 -6 -7 -7 -6 -6 -7 -7 -7 -7 -7 -7 -7 -7 -7 -7 -7 -7 -7 -7 -7 -7 -7 -7 -7 -7 -7 -6
-4 -5 -5 -6 -6 -6 -6 -5 -5 -5 -6 -6 -7 -7 -7 -7 -7 -7 -8 -8 -8 -8 -8 -8 -8 -8 -8 -8 -8 -8 -8 -8 -8 -8 -8 -8 -7 -7
-4 -5 -6 -6 -7 -6 -6 -6 -6 -6 -6 -6 -7 -7 -7 -7 -7 -7 -8 -8 -8 -7 -8 -8 -8 -8 -9 -9 -9 -9 -9 -9 -8 -8 -8 -8 -8 -7
-5 -6 -7 -7 -7 -7 -6 -6 -6 -6 -6 -6 -7 -7 -7 -7 -7 -7 -7 -8 -8 -8 -8 -8 -9 -9 -9 -9 -9 -9 -9 -9 -9 -8 -8 -8 -8 -7
-6 -6 -7 -7 -7 -7 -6 -6 -6 -6 -6 -6 -6 -6 -7 -7 -7 -7 -7 -7 -8 -8 -8 -9 -9 -10 -10 -10 -10 -10 -10 -9 -9 -9 -8 -8 -8 -8
-6 -6 -7 -7 -7 -7 -7 -6 -6 -5 -5 -6 -7 -7 -7 -7 -7 -7 -7 -8 -8 -9 -9 -10 -10 -10 -11 -11 -11 -10 -10 -10 -9 -9 -8 -8 -8 -7
-6 -7 -7 -7 -7 -7 -7 -7 -6 -5 -6 -6 -7 -7 -7 -7 -7 -8 -8 -9 -9 -9 -10 -10 -11 -11 -11 -11 -11 -11 -11 -10 -10 -10 -9 -8 -8 -7
-6 -7 -7 -7 -7 -6 -6 -6 -6 -6 -6 -7 -7 -7 -7 -7 -7 -8 -9 -9 -10 -10 -10 -11 -11 -11 -12 -12 -11 -11 -11 -11 -11 -10 -9 -9 -8 -7
-6 -6 -6 -6 -6 -6 -6 -6 -6 -6 -7 -7 -7 -7 -7 -7 -8 -8 -9 -9 -10 -10 -10 -11 -11 -12 -12 -12 -12 -11 -11 -11 -11 -10 -9 -9 -8 -7
-6 -6 -6 -6 -6 -6 -6 -6 -6 -6 -7 -7 -7 -7 -7 -8 -8 -9 -9 -10 -10 -10 -10 -11 -11 -11 -12 -12 -12 -12 -12 -11 -11 -10 -9 -8 -8 -7
-6 -6 -6 -6 -6 -6 -6 -6 -7 -7 -7 -7 -7 -7 -8 -8 -9 -9 -10 -10 -11 -10 -10 -11 -11 -11 -11 -11 -11 -11 -11 -11 -11 -10 -9 -8 -7 -7
-7 -6 -6 -6 -6 -6 -6 -6 -6 -7 -7 -7 -8 -8 -8 -9 -9 -10 -10 -11 -11 -11 -11 -11 -11 -11 -11 -11 -11 -11 -11 -11 -10 -10 -9 -8 -7 -6
-7 -6 -6 -6 -6 -6 -6 -6 -7 -7 -7 -8 -8 -9 -9 -9 -10 -10 -10 -11 -11 -11 -11 -11 -11 -11 -11 -11 -10 -10 -10 -9 -9 -9 -9 -8 -7 -5
-6 -6 -6 -6 -6 -6 -6 -7 -7 -7 -8 -8 -9 -9 -9 -10 -10 -10 -11 -11 -11 -11 -11 -11 -12 -12 -12 -11 -10 -10 -10 -9 -9 -8 -8 -7 -6 -5
-6 -6 -6 -6 -6 -6 -6 -7 -7 -7 -8 -8 -9 -9 -9 -10 -10 -10 -11 -11 -11 -11 -11 -11 -12 -12 -12 -11 -11 -10 -9 -9 -9 -8 -7 -6 -5 -4
-6 -6 -6 -6 -6 -6 -7 -7 -7 -8 -8 -8 -9 -9 -10 -10 -10 -10 -11 -11 -11 -11 -12 -12 -11 -11 -11 -11 -11 -10 -8 -8 -8 -8 -7 -6 -5 -4
-6 -6 -6 -6 -6 -7 -7 -7 -7 -8 -8 -9 -9 -9 -10 -10 -10 -11 -11 -11 -11 -12 -12 -12 -11 -11 -11 -11 -11 -10 -9 -7 -7 -7 -6 -6 -5 -4
-6 -6 -6 -6 -7 -7 -7 -7 -8 -8 -8 -9 -9 -9 -10 -10 -10 -11 -11 -11 -12 -12 -12 -12 -11 -11 -11 -11 -10 -10 -9 -8 -7 -6 -5 -5 -4 -3
Wind_Speed
16 16 13 10 10 9 8 8 8 6 8 7 6 7 10 13 19 19 18 26 30 32 33 34 34 35 36 36 37 38 38 38 38 38 39 39 40 40
13 14 15 11 9 9 9 8 9 9 7 6 8 5 6 14 21 21 20 28 31 33 34 34 35 36 36 37 38 38 39 39 39 40 40 41 41 41
14 16 16 13 11 10 9 9 10 10 14 9 7 8 10 11 14 18 21 22 24 32 34 35 36 37 37 38 39 40 40 40 41 41 41 42 42 42
18 16 17 14 14 12 11 12 12 12 12 14 9 9 11 11 11 13 16 20 20 29 34 35 36 37 38 39 39 40 40 40 41 41 41 41 42 42
17 18 17 16 17 14 13 13 12 12 11 11 12 9 10 10 11 13 16 12 19 26 30 32 34 36 37 38 39 39 40 40 40 40 41 41 41 42
16 17 17 18 17 16 15 15 13 12 11 11 11 11 11 10 10 12 13 11 13 16 22 27 32 36 37 38 39 39 39 39 39 39 39 39 39 39
16 16 18 22 25 20 16 13 13 12 11 11 12 11 12 10 11 10 13 12 12 12 13 15 15 15 17 29 34 37 38 39 39 38 38 37 37 37
15 14 16 23 27 32 31 27 22 15 14 13 12 13 14 12 10 11 12 14 16 8 11 15 12 14 12 10 28 36 37 38 38 38 37 36 36 36
14 13 15 18 24 16 23 30 27 29 26 17 16 16 14 12 11 13 14 16 19 11 11 18 11 15 13 18 32 35 36 36 37 36 36 36 36 35
16 16 16 15 17 17 16 16 15 16 18 14 12 13 13 12 12 15 18 18 17 12 10 16 14 14 15 12 28 33 35 35 35 35 35 35 35 35
16 16 17 16 24 28 19 17 16 16 21 26 25 24 27 28 23 14 13 14 17 12 6 10 15 16 15 14 18 30 32 32 32 32 33 33 34 33
12 15 24 23 25 28 19 16 16 14 11 12 15 19 17 18 24 14 10 13 16 15 6 7 13 13 15 11 10 11 14 23 29 31 32 31 31 21
11 12 14 27 28 28 24 15 18 14 10 11 11 10 9 9 9 9 9 10 14 16 9 9 14 15 16 16 13 12 12 13 15 19 24 28 29 24
11 9 13 24 26 25 20 18 22 19 8 8 8 8 8 8 7 8 9 10 12 16 14 13 16 16 17 19 17 10 10 11 13 14 13 20 24 27
11 16 18 21 21 17 20 20 16 8 5 7 8 8 7 7 7 7 9 10 11 12 14 15 16 16 16 17 18 16 15 13 12 13 13 13 12 12
11 16 22 21 16 14 13 10 7 5 6 7 7 7 6 6 7 7 9 8 10 12 11 14 15 17 16 17 17 17 15 11 10 11 12 12 12 11
8 7 9 8 9 7 6 6 5 5 7 6 6 6 7 7 8 7 8 9 11 14 12 9 10 12 16 16 16 16 15 14 13 12 12 13 12 11
11 7 8 8 9 8 7 7 7 7 7 6 6 6 6 7 9 9 9 10 12 12 12 11 11 11 11 11 16 16 14 13 12 12 12 12 12 10
10 7 7 8 8 7 7 6 6 6 5 5 5 6 6 8 9 10 10 10 11 12 12 10 10 11 13 13 7 11 12 11 10 10 10 11 11 10
6 7 7 7 7 6 6 6 5 5 4 5 5 6 7 8 10 11 10 11 12 12 12 10 9 10 12 13 12 10 14 13 11 10 9 9 10 12
6 6 7 6 6 6 6 6 5 5 5 4 5 6 7 8 10 10 10 16 15 12 13 12 11 17 12 9 11 10 8 14 15 11 9 7 6 6
6 7 6 6 6 6 6 5 5 5 5 5 6 6 7 8 10 11 10 11 11 12 13 12 11 11 9 10 12 12 12 11 12 17 18 14 6 3
7 7 6 6 6 6 5 6 6 5 5 5 6 6 7 8 8 9 10 10 11 12 13 12 10 9 9 10 11 10 12 11 9 7 7 13 18 19
Wind_Direction
220 217 218 215 210 207 202 197 203 227 234 225 236 236 239 251 264 268 262 268 274 276 278 279 280 281 282 283 283 284 283 282 281 280 278 277 276 275
217 217 218 215 211 209 208 207 210 221 236 223 230 245 265 270 271 271 268 273 276 278 279 280 280 280 280 281 281 282 282 281 279 278 277 275 273 272
218 217 218 211 211 212 211 212 217 221 242 246 242 253 253 257 266 267 269 268 269 273 276 277 278 279 279 279 280 280 280 280 279 278 276 275 273 272
218 216 217 212 211 212 214 217 221 223 234 249 251 252 253 256 258 262 269 269 266 271 274 276 278 279 279 279 280 280 279 279 278 277 275 274 272 271
216 216 215 211 214 215 215 220 224 229 231 243 253 253 259 259 261 266 265 265 268 272 275 277 279 280 280 280 280 280 279 278 277 276 274 272 271 269
216 216 214 214 215 214 218 221 223 228 232 240 251 256 260 257 256 265 270 264 267 271 275 276 278 280 280 281 281 281 280 279 278 276 274 272 270 268
217 216 216 217 218 218 221 220 220 225 231 238 248 256 259 258 256 259 269 274 268 266 271 271 273 271 273 276 277 279 278 277 275 274 272 271 269 267
220 217 218 226 228 228 229 227 221 222 229 234 244 249 255 255 258 262 271 279 281 255 262 273 270 274 273 265 275 277 276 274 273 271 269 268 267 267
222 219 222 224 228 230 238 239 237 234 231 229 239 247 255 258 261 270 271 272 275 275 279 282 275 276 276 277 281 281 280 278 275 272 269 267 266 265
220 219 221 221 223 223 227 234 241 246 249 250 249 256 262 264 262 266 271 275 275 269 260 279 284 283 283 277 283 282 281 279 277 274 270 267 265 263
218 216 219 221 226 227 224 226 234 240 249 250 252 256 259 265 268 273 276 283 286 282 248 270 284 288 285 281 278 281 281 281 279 278 275 269 264 261
219 217 222 222 226 230 225 221 229 234 232 243 255 264 268 272 277 273 270 278 283 287 265 264 283 289 290 276 264 271 279 283 283 282 280 274 268 263
225 219 217 226 228 229 227 222 231 234 229 239 250 254 255 254 255 251 247 255 273 279 280 279 285 283 280 284 282 274 272 274 277 278 279 275 268 262
227 219 215 221 228 231 233 233 238 245 236 236 248 255 257 259 257 254 251 250 255 268 276 274 279 280 280 281 284 279 267 269 271 273 272 274 270 261
222 222 219 220 223 230 235 237 241 238 223 240 252 258 255 258 262 267 267 264 264 265 270 269 271 274 271 274 279 280 282 279 269 267 267 266 264 259
240 225 222 220 218 217 227 239 231 221 225 239 250 256 261 267 270 271 278 282 285 284 269 263 265 269 273 272 272 275 273 271 270 274 276 275 268 256
234 212 209 206 204 198 201 210 214 228 247 239 246 259 267 274 278 277 278 284 287 291 293 281 266 265 267 271 273 270 270 269 267 270 271 272 268 254
236 217 205 199 198 199 204 210 214 221 228 235 244 255 268 277 284 284 282 284 287 290 292 295 295 292 281 265 251 263 266 268 268 267 264 266 268 257
233 208 196 192 194 195 200 205 212 217 218 228 241 253 266 276 282 287 288 288 289 290 291 292 293 293 294 295 271 256 268 275 272 268 262 259 264 264
218 197 188 185 186 191 198 204 210 214 218 229 242 254 264 276 283 286 288 289 294 295 296 292 288 286 284 287 288 283 279 272 270 269 269 265 262 265
198 186 179 179 182 187 195 200 204 212 223 231 247 257 265 274 281 284 289 295 299 297 298 298 291 294 288 281 278 278 274 272 264 259 265 269 263 257
184 180 176 176 179 185 192 195 204 217 227 238 249 258 265 273 281 286 290 294 295 294 295 296 294 295 285 278 277 283 289 289 279 264 252 254 269 271
179 175 173 175 178 184 189 197 207 221 230 240 252 262 270 279 282 285 290 293 296 298 301 302 301 296 290 281 279 279 282 289 291 279 258 248 251 262
Height
1439 1440 1441 1442 1443 1445 1446 1448 1449 1445 1442 1445 1447 1447 1447 1446 1444 1442 1440 1439 1437 1435 1432 1430 1428 1425 1422 1420 1417 1415 1412 1410 1409 1407 1405 1404 1403 1403
1428 1430 1430 1432 1434 1436 1437 1438 1438 1437 1433 1434 1437 1438 1438 1436 1434 1433 1431 1429 1428 1425 1423 1420 1418 1415 1412 1410 1407 1404 1402 1399 1397 1395 1393 1392 1391 1390
1418 1419 1420 1423 1424 1426 1428 1429 1429 1429 1425 1424 1427 1428 1427 1426 1424 1423 1421 1418 1416 1414 1412 1410 1407 1405 1402 1399 1396 1393 1390 1387 1385 1383 1381 1379 1378 1377
1406 1408 1409 1412 1414 1416 1418 1419 1420 1420 1418 1416 1417 1418 1418 1416 1414 1412 1410 1408 1406 1403 1401 1399 1397 1394 1391 1388 1385 1381 1378 1375 1373 1370 1368 1366 1365 1364
1395 1397 1399 1402 1403 1406 1408 1410 1411 1412 1411 1409 1407 1409 1408 1407 1405 1402 1400 1398 1396 1393 1391 1389 1386 1383 1379 1376 1373 1369 1366 1362 1360 1357 1355 1353 1351 1350
1385 1387 1389 1391 1393 1397 1399 1401 1402 1403 1403 1401 1400 1399 1398 1397 1396 1393 1390 1388 1386 1383 1380 1378 1374 1371 1367 1364 1360 1357 1353 1349 1346 1343 1341 1339 1338 1336
1375 1376 1378 1381 1384 1387 1390 1391 1393 1394 1394 1393 1392 1391 1389 1388 1387 1385 1382 1378 1375 1373 1368 1364 1361 1356 1352 1349 1346 1342 1339 1335 1332 1330 1327 1325 1324 1323
1364 1365 1368 1372 1375 1378 1381 1382 1384 1384 1384 1385 1383 1382 1379 1379 1379 1377 1374 1370 1363 1362 1359 1351 1350 1344 1339 1336 1332 1328 1324 1321 1318 1316 1314 1312 1311 1310
1353 1356 1359 1361 1366 1368 1372 1375 1376 1376 1377 1377 1375 1373 1372 1371 1371 1368 1365 1360 1354 1350 1349 1339 1336 1331 1327 1323 1319 1315 1311 1308 1305 1302 1300 1299 1298 1297
1343 1345 1348 1351 1355 1359 1362 1364 1365 1367 1369 1369 1367 1365 1365 1364 1363 1360 1355 1349 1344 1341 1339 1331 1324 1320 1315 1310 1306 1302 1298 1295 1292 1289 1287 1286 1285 1284
1333 1336 1339 1341 1345 1350 1353 1354 1355 1357 1359 1359 1359 1357 1356 1356 1355 1352 1348 1343 1334 1329 1330 1324 1315 1309 1302 1296 1292 1290 1286 1283 1279 1276 1274 1272 1272 1271
1326 1327 1330 1333 1337 1341 1344 1345 1346 1347 1350 1350 1350 1349 1348 1347 1346 1344 1340 1335 1327 1319 1317 1315 1307 1302 1291 1283 1281 1278 1275 1271 1268 1265 1262 1260 1259 1259
1319 1320 1322 1326 1330 1333 1336 1338 1339 1341 1342 1342 1341 1339 1338 1337 1335 1334 1331 1327 1321 1312 1309 1307 1299 1294 1287 1276 1270 1267 1264 1260 1257 1253 1251 1249 1248 1249
1312 1314 1316 1319 1323 1326 1329 1331 1333 1335 1335 1334 1333 1331 1330 1328 1326 1324 1321 1317 1313 1306 1300 1298 1291 1285 1278 1270 1261 1256 1253 1251 1247 1244 1241 1238 1237 1237
1305 1308 1311 1314 1317 1320 1323 1325 1327 1328 1328 1327 1325 1324 1322 1320 1317 1314 1310 1306 1302 1296 1292 1287 1282 1276 1271 1263 1255 1249 1244 1240 1237 1234 1232 1230 1229 1229
1300 1302 1305 1308 1311 1313 1316 1318 1320 1321 1320 1319 1318 1317 1315 1313 1309 1306 1301 1297 1291 1284 1281 1277 1272 1267 1261 1255 1249 1241 1237 1233 1228 1227 1225 1222 1221 1221
1293 1295 1299 1302 1304 1307 1309 1311 1313 1314 1314 1313 1312 1310 1308 1305 1302 1298 1294 1289 1283 1276 1269 1266 1263 1258 1252 1247 1240 1234 1229 1225 1222 1220 1218 1215 1213 1214
1289 1289 1292 1295 1298 1301 1303 1305 1307 1307 1307 1307 1305 1304 1302 1299 1295 1291 1287 1283 1277 1270 1264 1258 1254 1248 1242 1236 1233 1227 1223 1219 1216 1214 1212 1210 1207 1207
1283 1284 1287 1290 1293 1296 1298 1300 1301 1301 1301 1301 1300 1298 1296 1292 1289 1285 1281 1276 1270 1264 1258 1253 1248 1243 1237 1229 1224 1223 1219 1215 1212 1209 1207 1205 1203 1203
1277 1279 1282 1285 1288 1291 1293 1295 1295 1296 1296 1295 1294 1292 1290 1287 1283 1279 1275 1270 1264 1258 1251 1246 1243 1238 1234 1227 1219 1214 1214 1211 1207 1205 1203 1202 1201 1201
1273 1275 1278 1281 1284 1287 1288 1290 1290 1290 1290 1289 1288 1287 1284 1282 1278 1274 1269 1264 1259 1252 1246 1240 1236 1232 1227 1222 1215 1207 1206 1206 1204 1202 1201 1200 1199 1199
1269 1272 1275 1278 1280 1282 1284 1285 1285 1285 1285 1284 1283 1281 1279 1276 1272 1268 1263 1258 1253 1247 1241 1234 1229 1225 1221 1217 1211 1205 1201 1199 1198 1197 1197 1198 1198 1199
1265 1268 1271 1274 1277 1278 1280 1280 1280 1280 1280 1279 1278 1276 1274 1271 1267 1263 1258 1253 1247 1241 1235 1229 1224 1220 1215 1211 1207 1202 1199 1196 1195 1194 1194 1194 1196 1196